Location: B?lite?ti
(46.2833°N, 22.7333°E)
Time: 04:02:20
(UTC+00:00)

Cosmos 2278 Rocket - Pass Details

Date: 24 January 2021
Orbit: 840 x 847 km, 71.0° (Epoch: 26 February)

Event Time Altitude Azimuth Distance (km) Brightness Sun altitude
Rises 17:19:55 0° 188° (S) 3,386 5.5 -20.2°
Reaches altitude 10° 17:22:24 10° 183° (S) 2,457 4.7 -20.6°
Maximum altitude 17:27:49 50° 109° (ESE) 1,069 2.3 -21.6°
Enters shadow 17:28:42 46° 80° (E) 1,129 2.4 -21.7°
